Regional Weather Roundup
Issued by NWS State College, PA

Home | Current Version | Previous Version | Text Only | Print | Product List | Glossary Off
Versions: 1 2 3 4 5 6 7 8 9 10 11 12 13 14 15 16 17 18 19 20 21 22 23 24 25 26 27 28 29 30 31 32 33 34 35 36 37 38 39 40 41 42 43 44 45 46 47 48 49 50

000
ASUS41 KCTP 181010
RWRCTP

REGIONAL WEATHER ROUNDUP
NATIONAL WEATHER SERVICE STATE COLLEGE PA
600 AM EDT SAT APR 18 2015

Note: "fair" indicates few or no clouds below 12,000 feet with no
significant weather and/or obstructions to visibility.

* = STATION THAT DOES NOT REPORT PRECIPITATION /E.G. RAIN...SNOW...ETC/
    THUNDER OR FOG.

PAZ002>004-007>009-013>016-020>023-029>032-181100-
WESTERN PENNSYLVANIA

CITY           SKY/WX    TMP DP  RH WIND       PRES   REMARKS
ERIE           CLEAR     53  37  54 S8        30.00S
MEADVILLE      CLEAR     50  43  77 S7        30.03R
FRANKLIN*      CLEAR     46  43  87 S5        30.05R
NEW CASTLE     FAIR      44  44 100 CALM      30.06R
BEAVER COUNTY  NOT AVBL
BUTLER*        CLEAR     43  39  87 CALM      30.06S
PITTSBURGH INT CLEAR     47  44  90 CALM      30.05R
PITTSBURGH     CLEAR     53  44  71 CALM      30.04R
INDIANA*       CLOUDY    41  39  93 CALM      30.09R
LATROBE        FOG       41  41 100 CALM      30.07R VSB 3/4
WASHINGTON CO* CLEAR     43  39  87 CALM      30.06R
$$

PAZ004>006-010>012-017>019-024>028-033>037-041-042-045-046-049>053-181100-
CENTRAL PENNSYLVANIA

CITY           SKY/WX    TMP DP  RH WIND       PRES   REMARKS
BRADFORD       CLEAR     34  33  96 SE3       30.03R
DUBOIS         CLEAR     47  43  86 SW3       30.03R
CLEARFIELD     FOG       40  38  93 CALM      30.05R VSB 1/4
JOHNSTOWN      CLEAR     49  44  83 SW5       30.05R
ALTOONA        CLEAR     46  43  89 SW6       30.05R
STATE COLLEGE  CLEAR     48  45  87 CALM      30.03R
WILLIAMSPORT   CLEAR     44  41  89 CALM      30.02R
SELINSGROVE    CLEAR     42  41  96 CALM      30.02R FOG
FT INDIANTOWN  CLEAR     48  45  90 CALM      30.00R
CAPITAL CITY   CLEAR     49  45  86 W5        30.01R
HARRISBURG     CLEAR     48  46  93 CALM      30.00R
YORK           CLEAR     42  41  96 CALM      30.01R FOG
$$

PAZ038>040-043-044-047-048-054-055-060>062-067>071-181100-
EASTERN PENNSYLVANIA

CITY           SKY/WX    TMP DP  RH WIND       PRES   REMARKS
SCRANTON       CLEAR     44  41  89 SE3       30.00R
MOUNT POCONO   CLEAR     40  38  93 NW6       29.99R
ALLENTOWN      FOG       43  41  93 W5        29.99R VSB 3/4
QUAKERTOWN*    SUNNY     45  43  93 CALM      29.99S
READING        CLEAR     50  48  93 CALM      29.99R
LANCASTER      CLEAR     49  46  90 W6        30.00R
COATESVILLE    SUNNY     54  50  87 N3        30.00R
POTTSTOWN      FOG       47  46  97 CALM      30.00R VSB 1
BLUE BELL      CLEAR     50  48  93 CALM      29.98R
DOYLESTOWN     CLEAR     48  47  96 CALM      29.98R
WILLOW GROVE   NOT AVBL
NORTH PHILA    CLEAR     54  49  83 CALM      29.99S
PHILADELPHIA   PTCLDY    57  53  86 CALM      29.98S
$$



USA.gov is the U.S. government's official web portal to all federal, state and local government web resources and services.